Rechercher aéroport 
image banner adimage banner adimage banner ad
image banner ad

2O6 - Chowchilla

Situé à Chowchilla, United States

ICAO - 2O6, IATA -

Données fournies par Airmate  

Information générale

Coordonnées: N37°6'48" W120°14'49"
Élévation : 243 feet MSL.
Variation magnétique : 15° East
Voir autres Aéroports à California

Données opérationnelles

Special qualification required
Heure actuelle UTC:
Heure actuelle locale:
Météo à : KMAE - Madera Muni ( 18 km )
METAR: KMAE 212253Z AUTO 00000KT 10SM CLR 35/07 A3003 RMK AO2 SLP167 T03500067 $
Voir NOTAMs / SUP AIP / TFR affectant cet aéroport [VIEW]
Fréquences de communication: [VIEW]

Pistes:

Identifiant RWYQFULongueur (ft)Largeur (ft)SurfaceLDA (ft)
12134°325360ASPH
30314°325360ASPH

Coordonnées de l'aéroport

Adresse: Chowchilla United States

Vue satellite de 2O6